CT1ETE Weather Reports


time (UTC)temp
C
wind
direction
speed
KPH
gust
KPH
rain 1hr
cm
rain 24hr
cm
rain mn
cm
humidity
%
barometer
mb
20260504030438 10 248 0.0 0.0 0.00 0.74 0.00 85 1014.1
20260504024936 10 248 0.0 0.0 0.00 0.74 0.00 85 1014.1
20260504023437 10 248 0.0 3.2 0.00 0.76 0.00 85 1014.1
20260504021934 10 248 0.0 1.6 0.00 0.76 0.00 86 1014.1
20260504021122 10 248 0.0 3.2 0.00 0.76 0.00 86 1014.1
20260504020331 10 248 3.2 4.8 0.00 0.76 0.00 86 1014.3
20260504013432 10 248 3.2 4.8 0.00 0.76 0.00 86 1014.2
20260504013243 10 248 4.8 6.4 0.00 0.76 0.00 86 1014.4
20260504011956 10 248 4.8 6.4 0.00 0.76 0.00 86 1014.4
20260504004929 11 248 1.6 4.8 0.00 0.76 0.00 86 1014.5
20260504003426 11 248 3.2 6.4 0.00 0.76 0.00 86 1014.5
20260504001926 11 248 3.2 6.4 0.00 0.76 0.00 86 1014.5
20260504001130 11 248 4.8 8.0 0.00 0.76 0.00 86 1014.6
20260503235626 11 248 4.8 8.0 0.00 0.76 0.00 86 1014.6
20260503234115 11 240 6.4 8.0 0.00 0.76 0.00 86 1014.6
20260503231918 11 234 4.8 8.0 0.00 0.76 0.00 86 1014.6
20260503231113 11 243 6.4 11.3 0.00 0.79 0.00 86 1014.6
20260503225609 11 234 6.4 11.3 0.00 0.99 0.79 86 1014.7
20260503223418 10 234 1.6 6.4 0.00 1.02 0.79 86 1014.8
20260503221918 11 234 4.8 8.0 0.00 1.07 0.79 86 1014.7
20260503220414 11 226 6.4 11.3 0.00 1.07 0.79 86 1014.7
20260503214914 11 244 8.0 12.9 0.00 1.07 0.79 86 1014.7
20260503213414 11 223 8.0 12.9 0.00 1.09 0.79 86 1014.6
20260503211915 11 211 6.4 9.7 0.00 1.09 0.79 86 1014.5
20260503210414 11 230 6.4 12.9 0.00 1.09 0.79 85 1014.4
20260503204911 11 242 8.0 14.5 0.00 1.09 0.79 85 1014.2
20260503204107 11 237 8.0 17.7 0.00 1.09 0.79 84 1014.0
20260503201906 11 236 16.1 20.9 0.00 1.09 0.79 83 1013.9
20260503201053 11 241 14.5 20.9 0.00 1.09 0.79 83 1013.7
20260503194906 12 244 14.5 20.9 0.00 1.09 0.79 82 1013.5
20260503193406 12 259 16.1 24.1 0.00 1.09 0.79 81 1013.3
20260503191906 13 233 12.9 22.5 0.00 1.09 0.79 79 1013.0
20260503190405 13 266 16.1 25.7 0.00 1.09 0.79 78 1012.9
20260503184906 13 246 16.1 25.7 0.00 1.09 0.79 76 1012.9
20260503183406 14 249 17.7 27.4 0.00 1.09 0.79 73 1012.7
20260503181906 15 237 19.3 27.4 0.00 1.09 0.79 72 1012.8
20260503181109 15 246 14.5 25.7 0.00 1.09 0.79 72 1012.7
20260503174906 15 239 12.9 25.7 0.00 1.09 0.79 74 1012.7
20260503174054 15 230 19.3 29.0 0.00 1.09 0.79 70 1012.7
20260503171906 16 236 17.7 27.4 0.00 1.09 0.79 70 1012.7
20260503170401 16 267 16.1 27.4 0.00 1.09 0.79 70 1012.6
20260503150353 15 240 3.2 12.9 0.03 1.27 0.79 85 1012.5
20260503131052 14 199 3.2 9.7 0.00 0.99 0.48 85 1013.0
20260503110338 14 275 9.7 17.7 0.03 0.61 0.08 85 1013.3
20260503090336 13 174 9.7 20.9 0.00 0.61 0.05 85 1013.3
20260503080332 13 115 6.4 14.5 0.00 0.79 0.05 75 1013.3
20260503071834 13 125 1.6 9.7 0.00 0.79 0.05 73 1013.4
20260503070334 12 125 4.8 11.3 0.00 0.79 0.05 74 1013.3
20260503054829 11 164 3.2 9.7 0.00 0.79 0.05 79 1012.9
20260503053330 11 165 3.2 8.0 0.00 0.79 0.05 80 1012.8
20260503052539 12 165 3.2 8.0 0.00 0.79 0.05 79 1012.9
20260503050329 12 170 3.2 11.3 0.00 0.79 0.05 77 1012.8
20260503044829 12 195 1.6 4.8 0.00 0.79 0.05 76 1012.9
20260503043327 12 195 1.6 4.8 0.03 0.79 0.05 74 1012.9
20260503041822 12 217 3.2 8.0 0.03 0.79 0.05 73 1012.9
20260503040322 12 136 0.0 3.2 0.03 0.79 0.05 73 1013.1
20260503034820 12 136 1.6 4.8 0.03 0.79 0.05 72 1013.0
20260503034021 12 136 1.6 3.2 0.03 0.79 0.05 71 1013.2
20260503031820 12 136 0.0 0.0 0.03 0.79 0.05 72 1013.2